FW3198 Weather Reports


time (UTC)temp
F
wind
direction
speed
knots
gust
knots
rain 1hr
in
rain 24hr
in
rain mn
in
humidity
%
barometer
mb
20260906124550 73 0 0.0 0.0 0.00 0.00 0.00 94 1013.3
20260906123055 71 0 0.0 0.0 0.00 0.00 0.00 97 1013.4
20260906121556 70 0 0.0 0.0 0.00 0.00 0.00 97 1013.2
20260906120056 70 0 0.0 0.0 0.00 0.00 0.00 97 1013.2
20260906114553 69 0 0.0 0.0 0.00 0.00 0.00 97 1013.0
20260906113050 69 0 0.0 0.0 0.00 0.00 0.00 97 1013.0
20260906111556 69 0 0.0 0.0 0.00 0.00 0.00 97 1013.0
20260906110050 69 0 0.0 0.0 0.00 0.00 0.00 97 1012.8
20260906104557 69 0 0.0 0.9 0.00 0.00 0.00 96 1012.7
20260906103052 69 0 0.0 0.0 0.00 0.00 0.00 96 1012.5
20260906101549 69 0 0.0 0.0 0.00 0.00 0.00 96 1012.4
20260906100059 69 0 0.0 0.0 0.00 0.00 0.00 96 1012.5
20260906094604 69 0 0.0 0.0 0.00 0.00 0.00 96 1012.6
20260906093053 70 0 0.0 0.0 0.00 0.00 0.00 96 1012.6
20260906091551 70 0 0.0 0.0 0.00 0.00 0.00 96 1012.4
20260906090054 70 0 0.0 0.0 0.00 0.00 0.00 95 1012.4
20260906084559 70 0 0.0 0.0 0.00 0.00 0.00 95 1012.4
20260906083052 70 0 0.0 0.0 0.00 0.00 0.00 95 1012.4
20260906081550 70 0 0.0 0.0 0.00 0.00 0.00 95 1012.3
20260906074559 70 0 0.0 0.0 0.00 0.00 0.00 95 1012.4
20260906073054 70 0 0.0 0.0 0.00 0.00 0.00 95 1012.4
20260906071552 70 0 0.0 0.0 0.00 0.00 0.00 95 1012.2
20260906070059 70 0 0.0 0.0 0.00 0.00 0.00 95 1012.4
20260906064552 70 0 0.0 0.0 0.00 0.00 0.00 95 1012.7
20260906063051 70 0 0.0 0.0 0.00 0.00 0.00 94 1012.7
20260906061550 70 0 0.0 0.0 0.00 0.00 0.00 94 1012.7
20260906060134 71 0 0.0 0.0 0.00 0.00 0.00 93 1012.8
20260906054606 71 0 0.0 0.0 0.00 0.00 0.00 93 1012.9
20260906053056 71 0 0.0 0.0 0.00 0.00 0.00 92 1013.1
20260906051557 71 0 0.0 0.0 0.00 0.00 0.00 92 1013.3
20260906050105 72 0 0.0 0.9 0.00 0.00 0.00 91 1013.5
20260906044559 72 0 0.0 0.9 0.00 0.00 0.00 91 1013.6
20260906043054 71 0 0.0 0.9 0.00 0.00 0.00 91 1013.5
20260906041550 72 264 0.0 0.9 0.00 0.00 0.00 91 1013.1
20260906040051 72 0 0.0 0.0 0.00 0.00 0.00 92 1012.6
20260906034604 72 0 0.0 0.0 0.00 0.00 0.00 92 1012.7
20260906033057 71 0 0.0 0.0 0.00 0.00 0.00 92 1012.6
20260906031551 71 0 0.0 0.0 0.00 0.00 0.00 92 1012.7
20260906024558 71 0 0.0 0.0 0.00 0.00 0.00 93 1013.1
20260906023050 71 0 0.0 0.0 0.00 0.00 0.00 93 1013.1
20260906021557 71 0 0.0 0.9 0.00 0.00 0.00 92 1013.3
20260906020057 71 0 0.0 0.0 0.00 0.00 0.00 92 1013.7
20260906014553 72 0 0.0 1.7 0.00 0.00 0.00 90 1013.6
20260906013050 74 0 0.0 1.7 0.00 0.00 0.00 85 1013.5
20260906011549 77 276 3.5 8.7 0.00 0.00 0.00 74 1013.3
20260906010137 78 304 2.6 10.4 0.00 0.00 0.00 77 1013.1
20260906004609 80 284 1.7 6.1 0.00 0.00 0.00 77 1013.6
20260906003103 81 102 1.7 11.3 0.00 0.00 0.00 77 1013.2
20260906001601 83 100 2.6 5.2 0.00 0.00 0.00 77 1013.5
20260906000058 83 0 0.0 0.0 0.00 0.00 0.00 81 1012.4
20260905234554 84 0 0.0 0.0 0.00 0.00 0.00 80 1012.1
20260905233051 84 0 0.0 0.0 0.00 0.00 0.00 78 1011.4
20260905231550 85 150 0.0 1.7 0.00 0.00 0.00 77 1011.8
20260905224552 86 136 0.0 0.9 0.00 0.00 0.00 75 1012.1
20260905223055 87 0 0.0 0.9 0.00 0.00 0.00 75 1011.7
20260905221552 87 0 0.0 0.9 0.00 0.00 0.00 75 1011.6
20260905220058 88 0 0.0 0.9 0.00 0.00 0.00 73 1011.7
20260905214553 88 113 0.0 1.7 0.00 0.00 0.00 72 1011.6
20260905213101 89 11 0.0 0.9 0.00 0.00 0.00 70 1011.5
20260905211553 91 98 0.9 2.6 0.00 0.00 0.00 68 1011.6
20260905204547 93 0 0.0 2.6 0.00 0.00 0.00 66 1011.6
20260905203052 94 19 0.0 1.7 0.00 0.00 0.00 65 1011.7
20260905201552 94 108 0.0 5.2 0.00 0.00 0.00 63 1012.0
20260905200112 94 160 0.0 3.5 0.00 0.00 0.00 64 1012.2
20260905194556 93 98 0.9 4.3 0.00 0.00 0.00 62 1012.3
20260905193050 91 143 0.0 1.7 0.00 0.00 0.00 65 1012.8
20260905191549 91 0 0.0 1.7 0.00 0.00 0.00 64 1013.2
20260905190058 92 309 0.0 0.0 0.00 0.00 0.00 63 1013.0
20260905184606 93 0 0.0 0.9 0.00 0.00 0.00 61 1012.7
20260905183052 94 132 0.0 0.9 0.00 0.00 0.00 57 1012.9
20260905181555 94 0 0.0 0.0 0.00 0.00 0.00 54 1013.2
20260905174553 96 285 0.0 5.2 0.00 0.00 0.00 50 1013.6
20260905173054 94 0 0.0 1.7 0.00 0.00 0.00 58 1013.6
20260905171550 93 0 0.9 3.5 0.00 0.00 0.00 58 1013.8
20260905170047 92 289 0.0 2.6 0.00 0.00 0.00 58 1014.2
20260905164554 92 0 0.9 3.5 0.00 0.00 0.00 60 1014.4
20260905163050 93 285 0.0 5.2 0.00 0.00 0.00 60 1014.5
20260905161558 93 0 0.9 2.6 0.00 0.00 0.00 59 1014.7
20260905160055 93 105 0.0 2.6 0.00 0.00 0.00 59 1014.7
20260905154606 91 296 0.9 3.5 0.00 0.00 0.00 64 1014.9
20260905153048 90 289 0.0 1.7 0.00 0.00 0.00 65 1014.9
20260905151626 90 0 0.0 2.6 0.00 0.00 0.00 66 1015.1
20260905150053 87 0 0.9 1.7 0.00 0.00 0.00 72 1015.2
20260905144550 87 0 0.0 1.7 0.00 0.00 0.00 74 1015.2
20260905143100 88 0 0.0 0.9 0.00 0.00 0.00 73 1015.2
20260905141559 85 0 0.0 0.9 0.00 0.00 0.00 77 1015.3
20260905140054 83 0 0.0 0.9 0.00 0.00 0.00 81 1015.5
20260905134550 83 0 0.0 0.0 0.00 0.00 0.00 83 1015.5
20260905133059 81 0 0.0 0.0 0.00 0.00 0.00 86 1015.5
20260905131604 80 0 0.0 0.0 0.00 0.00 0.00 89 1015.5
20260905130052 79 0 0.0 0.0 0.00 0.00 0.00 90 1015.6